Weather Roundup
Issued by NWS

Home | Current Version | Previous Version | Text Only | Print | Product List | Glossary On
Versions: 1 2 3 4 5 6 7 8 9 10 11 12 13 14 15 16 17 18 19 20 21 22 23 24 25 26 27 28 29 30 31 32 33 34 35 36 37 38 39 40 41 42 43 44 45 46 47 48 49 50
000
NZUS93 KARX 291910
HRRWXR

CURRENT HOURLY OBSERVATIONS ACROSS
MUCH OF THE UPPER MISSISSIPPI VALLEY
NATIONAL WEATHER SERVICE LA CROSSE WI
200 PM CDT FRI JUL 29 2016


...SOUTHEAST MINNESOTA...


CITY           SKY/WX    TMP DP  RH WIND       PRES   REMARKS
ROCHESTER      SUNNY     74  62  66 NE14      30.05F
ROCHESTER/MAYO FAIR      73  57  58 NE9       30.05F
WINONA         CLOUDY    75  59  57 NE6       30.03F
AUSTIN         SUNNY     73  59  60 NE12      30.03F
ALBERT LEA     CLOUDY    73  63  68 NE9       30.05S
DODGE CENTER   MOSUNNY   75  57  53 N7        30.05F
PRESTON          N/A    N/A N/A N/A MISG        N/A
OWATONNA       MOSUNNY   75  61  60 N8        30.05F
FARIBAULT      MOSUNNY   73  57  56 N7        30.06F
$$

...ELSEWHERE IN MINNESOTA...


CITY           SKY/WX    TMP DP  RH WIND       PRES   REMARKS
MINNEAPOLIS    MOSUNNY   76  48  37 NE7       30.07S
INTNL FALLS    CLOUDY    75  57  53 CALM      30.08F
DULUTH         MOSUNNY   71  49  45 VRB7      30.13R
RED WING       SUNNY     77  54  44 NW6       30.04S
REDWOOD FALLS  SUNNY     78  53  41 NE7       30.07F
MANKATO        MOSUNNY   73  57  56 N6        30.06F
WORTHINGTON    PTSUNNY   75  59  57 N10       30.09F
FAIRMONT       PTSUNNY   75  63  64 NE8       30.05F
$$

...SOUTHWEST WISCONSIN...


CITY           SKY/WX    TMP DP  RH WIND       PRES   REMARKS
LA CROSSE      CLOUDY    76  63  64 NE3       30.01F
PRAIRIE DU CHI CLOUDY    66  62  87 CALM      30.00S
BOSCOBEL       LGT RAIN  67  64  90 NE7       30.01S
LONE ROCK      LGT RAIN  66  64  93 N3        30.01S
PLATTEVILLE    CLOUDY    70  68  93 N7        29.99F
FORT MC COY    CLOUDY    73  64  72 E8        30.03S
CAMP DOUGLAS   CLOUDY    70  64  83 NE8       30.03S
MAUSTON-NEW LI CLOUDY    69  65  84 NE3       30.02F
VIROQUA        CLOUDY    73  65  77 N8        30.02F
WIS DELLS      CLOUDY    68  64  85 NE3       30.02S
$$

...ELSEWHERE IN WISCONSIN...


CITY           SKY/WX    TMP DP  RH WIND       PRES   REMARKS
MILWAUKEE      CLOUDY    74  65  73 NE14      29.98S
MADISON        CLOUDY    71  65  81 NE10      29.98F
GREEN BAY      CLOUDY    72  66  81 NE9       30.03F
EAU CLAIRE     SUNNY     76  55  48 VRB3      30.04F
BLACK RVR FLS  FAIR      77  60  55 E7        30.02F
MEDFORD        PTSUNNY   72  58  62 E5        30.06F
WAUSAU         CLOUDY    74  59  59 SE10      30.04F
WIS RAPIDS     CLOUDY    71  61  70 SE7       30.05F
MARSHFIELD     CLOUDY    74  61  63 E7        30.04S
RICE LAKE      SUNNY     74  53  48 NE3       30.09S
$$

...NORTHEAST IOWA...


CITY           SKY/WX    TMP DP  RH WIND       PRES   REMARKS
WATERLOO       CLOUDY    69  62  78 N13       29.98F
DUBUQUE        RAIN      68  67  96 NE9       29.98F FOG
DECORAH        CLOUDY    68  66  94 NE8G16    30.00F
MASON CITY     PTSUNNY   74  62  66 NE14      30.04F
CHARLES CITY   CLOUDY    70  66  88 NE9       30.03R
OELWEIN        CLOUDY    68  64  88 N9G15     30.01S
$$

...ELSEWHERE IN IOWA...


CITY           SKY/WX    TMP DP  RH WIND       PRES   REMARKS
DES MOINES     CLOUDY    70  63  78 NW8       30.01S
IOWA CITY      CLOUDY    78  68  71 SW9       29.96F
FORT DODGE     CLOUDY    68  61  77 NE8       30.04F
MARSHALLTOWN   CLOUDY    69  66  90 NW7       29.99F
CEDAR RAPIDS   LGT RAIN  71  69  93 N8        29.96F FOG
$$

...NORTHERN ILLINOIS...


CITY           SKY/WX    TMP DP  RH WIND       PRES   REMARKS
CHICAGO-OHARE  PTSUNNY   76  68  76 NE13      29.89F
CHICAGO-MIDWAY CLOUDY    77  70  79 E13       29.90F THUNDER
MOLINE         PTSUNNY   80  69  69 W7        29.93S
ROCKFORD       TSTM      76  69  79 N8        29.94S
PEORIA         MOSUNNY   80  68  66 W6        29.94F
$$

NOTE: "FAIR" INDICATES FEW OR NO CLOUDS BELOW 12,000 FEET WITH NO
SIGNIFICANT WEATHER AND/OR OBSTRUCTIONS TO VISIBILITY. WIND
SPEEDS ARE IN MILES-PER-HOUR.




USA.gov is the U.S. government's official web portal to all federal, state and local government web resources and services.